sat.trackr.live / text

‹ back to catalog

ONEWEB-0176

NORAD 48210 · 2021-031A

PAYLOAD ACTIVE UNKNOWN

§ Identity

Operator
Country
UK
Launch date
2021-04-25
Launch site
VOSTO
Launch vehicle
Mass (kg)
RCS (m²)

Purposes: comms

External: N2YO · Heavens-Above · Gunter

§ Orbital elements

Epoch: 2026-05-25T02:46:01.862112Z

Period
109.55 min
Inclination
87.8944°
Eccentricity
0.0001708
Mean motion
13.14501861 rev/d
Perigee alt
1,204.5 km
Apogee alt
1,207.1 km
Semi-major
7,583.9 km
B*
-2.3011e-5
RAAN
294.3005°
Arg perigee
97.7036°
Mean anomaly
262.4288°
Rev number
24,528

§ Raw data

ONEWEB-01761 48210U 21031A   26145.11529933  .00000004  00000+0 -23011-4 0  99982 48210  87.8944 294.3005 0001708  97.7036 262.4288 13.14501861245281

JSON: /api/v1/satellites/48210 · /tle

For live sub-satellite position, see the globe view (requires WebGL).

§ Visibility from observer

Set your observer location to see the next 7 days of passes ≥ 10°. The values pass through the URL so the page stays shareable.

No JS? Fill the form by hand. The geolocation button needs JavaScript.